Wind_Speed
12 12 12 12 12 13 13 13 14 14 14 15 16 17 18 19 19 21 21 22 21 20 15 10 8 5 5 6 7 8 8 8 7 6 7 10 12 11 12 13 13 14 13 11 9 6 4 5 5 5 5 2 3 3 3 4 3 2 3 4 1 3 3 5 7 7 5 4 7 11 11 8 7 7 10 8 9 14 12 9 9 10 11 16 18 19 21 18
11 11 12 12 12 12 12 12 13 14 14 14 15 16 17 18 18 20 20 21 20 19 16 11 8 5 3 4 5 6 6 6 5 6 8 9 9 10 11 12 13 13 14 13 11 9 7 7 6 6 5 1 2 3 2 3 3 2 3 3 2 4 4 3 6 9 5 5 9 10 12 11 9 14 17 8 6 13 12 9 11 14 16 17 20 20 19 19
10 11 11 12 12 12 12 12 12 13 14 14 14 15 16 17 18 19 19 20 20 18 17 12 8 4 2 2 3 3 2 3 3 5 7 6 8 9 10 11 11 12 14 14 13 12 10 10 9 7 4 2 3 3 3 4 2 1 3 3 5 6 4 3 7 12 8 9 11 9 12 10 10 18 17 10 9 8 8 12 13 16 22 21 21 21 19 19
9 10 10 11 11 12 11 11 12 12 13 14 14 14 15 17 17 18 18 19 19 18 17 13 9 5 2 2 3 2 2 2 1 3 4 5 6 7 8 9 9 11 13 14 13 13 11 12 10 6 3 3 5 3 3 6 4 1 3 2 5 5 4 5 9 10 8 11 12 10 11 8 14 18 15 16 10 4 12 22 19 18 26 25 23 22 19 19
8 9 9 10 11 11 11 11 11 11 12 13 14 14 14 15 16 17 18 18 19 18 16 14 10 6 3 0 2 3 2 1 2 2 2 3 4 5 6 6 7 9 12 13 12 12 12 13 11 5 3 3 6 4 3 7 5 2 0 1 5 7 3 6 10 7 9 11 10 9 9 11 16 14 17 21 11 7 17 27 21 18 25 25 24 23 20 19
8 9 9 9 10 10 11 11 11 11 11 11 12 13 14 14 16 17 17 17 18 18 17 15 12 7 4 2 1 2 1 1 3 2 1 1 2 3 4 4 5 8 11 10 9 11 13 16 13 6 4 4 5 3 3 7 5 2 2 1 4 6 3 8 11 8 10 11 10 9 8 13 15 9 18 26 17 10 14 21 19 17 23 24 24 24 22 20
8 9 9 9 9 10 10 11 11 11 11 11 11 12 13 13 14 16 16 17 17 18 17 15 13 9 5 3 2 2 3 2 4 4 2 1 1 2 3 3 4 7 9 8 7 10 14 18 16 8 4 3 4 3 6 9 4 1 2 2 3 3 3 8 10 9 11 11 12 10 8 13 13 7 13 24 22 12 9 17 19 20 25 24 23 24 22 21
9 9 9 9 9 10 10 10 11 11 11 10 10 11 11 12 13 15 15 16 17 18 17 15 13 11 7 5 4 4 5 4 5 5 3 2 1 0 1 2 2 5 8 7 6 9 13 17 14 7 3 1 2 3 6 8 4 2 2 2 1 1 2 7 8 9 11 10 10 9 7 10 12 9 10 20 21 13 12 19 21 25 27 25 25 24 23 21
10 11 11 11 11 11 11 11 11 11 11 11 11 11 11 12 12 14 15 15 16 16 17 15 12 11 8 6 6 5 6 6 6 6 5 3 3 1 1 1 1 3 7 7 6 6 10 13 11 7 2 1 1 3 5 5 2 1 2 5 3 3 2 5 9 10 11 9 8 8 6 6 9 7 7 17 19 15 18 22 25 28 28 26 26 24 23 22
12 12 12 12 12 12 12 12 12 12 12 12 11 11 11 12 12 14 15 15 15 15 17 15 12 11 7 6 5 3 5 7 8 7 6 5 3 2 1 2 1 3 6 7 5 4 7 11 10 8 2 0 2 4 4 2 2 5 5 7 7 7 6 5 10 12 11 8 7 7 3 3 8 5 5 14 19 20 23 25 28 28 28 28 26 24 23 21
13 13 13 13 13 13 13 13 13 13 13 13 13 12 12 12 12 13 14 15 15 15 16 14 11 10 8 6 6 5 5 7 9 8 8 7 4 2 2 2 2 3 5 6 5 3 5 9 10 7 2 1 4 3 2 1 5 7 7 9 9 8 8 6 9 12 10 6 7 5 0 1 5 3 8 16 23 25 27 28 29 28 28 27 26 24 22 20
13 14 14 14 14 14 14 14 14 14 14 14 14 13 13 12 12 13 14 14 14 14 15 12 10 10 8 8 10 9 8 7 8 9 9 8 6 4 3 3 3 3 5 6 4 2 5 8 8 6 2 2 3 2 1 4 7 6 4 6 8 9 7 4 4 8 9 5 6 4 1 3 6 9 10 16 26 28 28 29 29 29 28 27 26 24 22 21
14 14 14 15 15 15 15 15 15 15 15 15 15 14 14 13 12 12 13 14 14 14 13 11 10 10 7 8 10 10 8 8 9 9 9 9 7 5 4 4 4 4 4 5 3 2 6 7 6 5 2 1 1 0 3 6 6 4 3 3 4 8 6 3 1 4 6 5 7 5 3 7 9 14 11 16 29 30 28 31 31 31 30 28 27 25 24 22
15 15 15 15 15 16 16 15 16 16 15 16 15 15 14 14 13 12 13 13 12 12 11 10 11 9 7 8 9 9 10 10 9 9 10 10 8 7 6 5 5 5 4 4 2 1 6 7 4 4 1 1 1 2 4 5 4 2 1 2 3 4 4 5 2 5 5 5 9 7 4 9 8 13 13 19 30 32 31 32 33 33 32 31 29 27 25 24
16 16 16 16 16 16 16 16 16 16 16 16 16 16 15 15 14 13 12 11 11 11 9 10 11 8 7 9 10 9 10 10 10 11 11 11 10 8 7 7 6 5 5 4 2 2 7 6 2 3 1 1 1 0 3 4 4 3 2 3 3 1 5 9 4 7 5 3 8 8 3 10 9 10 14 23 30 33 32 32 34 34 34 33 31 29 27 24
18 18 17 17 17 17 17 17 17 17 17 16 17 16 15 15 15 12 10 10 11 10 9 10 10 7 6 7 9 9 11 11 11 11 12 12 10 10 9 8 7 6 5 3 3 3 6 5 2 3 2 1 2 3 4 4 4 4 1 2 4 2 4 8 4 5 4 1 5 6 4 8 7 5 9 24 31 32 29 28 32 35 35 35 33 31 29 26
19 19 19 18 18 18 18 18 18 18 18 17 18 16 15 15 13 10 11 11 10 9 9 10 8 7 8 9 9 10 11 11 12 12 13 12 12 11 10 8 7 7 5 2 2 2 4 2 2 1 2 3 3 4 4 3 4 4 2 1 4 4 3 5 6 3 1 2 4 5 5 11 11 3 7 23 31 31 27 27 33 35 35 36 35 33 31 29
20 21 20 19 19 18 18 18 18 19 19 18 18 18 17 12 9 11 13 8 5 6 8 9 6 2 8 11 9 8 9 10 13 13 13 12 12 11 10 8 7 6 4 3 2 0 3 1 2 1 3 4 3 5 1 4 3 3 3 2 4 4 4 6 6 4 2 2 5 4 6 14 16 8 8 20 28 30 30 31 33 34 35 35 36 35 33 32
21 21 21 20 20 19 19 19 18 19 20 18 17 18 15 9 8 10 7 5 3 6 5 8 10 4 5 8 9 9 8 9 11 13 13 12 11 11 10 8 7 6 3 2 2 1 2 2 3 1 2 3 2 4 6 7 6 5 5 4 4 5 6 7 6 4 2 3 7 7 8 13 16 14 10 17 27 31 31 30 28 29 32 34 36 37 35 34
22 22 22 21 21 20 19 19 19 19 19 19 18 16 12 8 7 4 5 7 11 14 12 11 13 13 11 9 10 11 11 11 12 12 12 12 12 10 9 8 6 4 1 2 2 2 4 2 1 4 5 7 7 6 6 5 5 4 3 4 5 5 8 8 4 4 1 2 8 8 8 11 15 17 13 15 23 24 25 26 25 28 32 35 38 38 37 35
23 22 22 22 21 20 19 20 19 17 18 17 16 14 9 7 5 4 6 10 13 14 17 17 18 20 18 15 13 11 10 10 12 14 13 12 12 8 7 6 3 3 2 1 1 2 4 1 5 8 9 8 6 6 5 3 3 3 3 4 5 5 8 9 4 5 2 3 6 5 6 11 13 17 16 11 15 19 26 28 27 31 34 36 39 39 39 35
25 24 23 23 22 21 20 19 18 17 16 15 13 10 8 8 6 7 9 10 13 15 18 21 22 23 22 20 18 14 11 9 9 14 14 13 12 9 7 4 3 3 1 2 1 3 4 3 9 8 6 5 4 5 6 3 3 3 2 2 4 4 4 8 4 5 3 2 6 6 6 10 12 16 19 12 15 22 33 36 36 36 36 38 39 39 39 36
28 26 25 24 22 21 20 19 18 16 14 13 11 9 8 9 8 9 9 8 13 15 16 18 19 19 18 17 15 12 12 11 9 13 15 13 12 9 7 5 3 1 1 2 5 1 1 6 7 5 7 8 2 2 4 1 1 4 3 2 5 4 1 4 4 5 4 2 6 9 9 9 10 15 19 16 19 26 32 36 37 36 36 40 41 41 42 41
29 28 26 24 23 22 20 18 17 15 14 12 10 8 8 9 9 11 9 6 8 9 11 13 12 13 13 10 9 10 11 11 8 11 17 15 11 8 6 5 4 1 3 4 7 4 6 6 3 7 6 6 3 1 2 2 3 4 5 6 6 5 5 6 4 6 6 4 4 9 9 7 7 12 13 8 9 19 24 25 28 33 35 35 36 38 41 42
30 29 26 25 24 22 19 18 16 15 14 11 9 8 8 9 8 10 8 3 5 6 6 8 8 9 10 9 8 9 8 8 9 11 15 16 12 6 4 5 4 3 5 4 5 4 7 4 5 6 3 4 5 3 4 6 3 5 5 9 9 8 7 5 5 6 5 4 3 7 7 6 2 6 10 5 3 10 13 14 22 30 31 31 34 37 39 40
30 30 26 25 24 22 18 15 14 13 11 9 9 8 7 7 6 8 6 3 3 4 3 5 6 5 9 9 9 8 2 5 10 13 14 14 13 9 4 3 2 2 5 4 2 3 3 0 4 6 5 4 4 4 5 7 3 4 4 6 7 4 2 2 4 4 1 3 2 4 2 8 3 3 10 9 7 10 9 9 18 25 28 32 38 39 39 40
30 29 26 24 24 21 17 14 13 12 9 8 7 7 7 6 4 6 5 3 4 4 4 5 6 7 8 9 12 10 1 3 8 11 14 12 12 10 5 3 1 2 4 4 1 3 3 2 4 5 5 5 4 5 6 8 6 3 4 4 5 4 2 2 3 1 3 3 4 3 4 8 8 6 9 8 8 13 12 11 14 19 27 35 38 37 38 41
29 27 24 23 23 21 18 15 14 12 10 8 7 7 6 5 4 2 3 2 4 3 4 3 5 7 8 10 15 9 1 5 6 7 13 12 10 8 4 6 6 4 4 5 4 5 3 4 5 5 4 3 6 6 7 10 5 5 4 4 5 4 3 3 3 1 2 3 6 5 7 4 9 5 3 2 4 12 14 15 14 16 27 34 35 35 37 40
26 25 23 22 22 21 19 17 15 12 11 10 8 8 5 3 1 3 3 3 3 2 2 4 5 6 6 8 11 8 2 3 2 6 12 10 9 6 2 5 6 4 1 3 5 6 1 3 6 7 5 6 6 3 6 9 4 3 5 4 4 5 4 3 3 1 2 2 9 7 7 4 8 4 2 2 3 10 12 12 11 15 26 31 31 34 36 39
22 22 22 22 21 20 19 17 16 13 11 10 9 7 3 2 3 2 3 4 2 0 3 4 4 5 6 6 4 5 3 3 2 8 9 6 6 4 3 3 3 4 1 3 3 5 2 1 1 4 5 5 4 2 1 4 3 4 5 4 5 5 4 4 2 3 3 4 10 8 11 8 6 3 6 4 5 7 7 8 8 11 19 25 29 34 37 39
18 19 21 21 21 20 18 17 17 14 13 11 9 6 4 2 3 3 7 4 2 1 3 2 2 3 7 5 2 2 2 2 4 8 5 3 3 2 4 3 2 3 3 5 4 6 4 1 2 3 4 5 7 4 2 2 3 4 4 4 4 4 4 4 4 4 1 6 7 4 8 9 8 6 5 5 6 6 6 7 8 8 14 23 30 35 37 40
15 16 19 20 22 21 19 18 17 15 15 12 10 8 5 1 1 4 4 2 1 3 3 3 2 3 5 2 1 4 2 2 5 6 4 3 3 3 3 5 4 0 4 3 3 5 3 4 3 2 2 6 6 4 2 4 4 4 4 4 3 4 4 3 3 1 3 7 4 1 4 5 11 10 9 10 11 10 9 10 12 10 13 23 30 33 36 40
13 16 18 19 21 21 20 18 16 16 16 14 11 7 5 2 6 6 5 2 2 3 2 2 1 3 6 3 3 3 2 3 5 4 2 3 2 5 5 4 6 3 4 3 1 4 4 5 1 1 2 8 9 5 2 2 1 5 4 4 3 1 1 4 4 3 5 6 3 4 3 5 9 8 12 16 16 15 13 15 19 16 14 21 27 32 36 39
15 17 16 18 20 21 21 20 18 18 17 16 12 6 3 6 6 4 7 7 3 2 2 3 3 3 4 3 4 4 3 4 4 5 2 2 1 4 5 5 4 3 2 2 0 2 3 6 3 5 2 8 10 6 5 5 4 4 4 4 5 5 4 4 4 4 6 7 4 3 3 4 4 2 7 10 11 12 14 17 18 17 16 19 23 30 35 39
16 15 15 19 21 22 21 21 21 19 18 18 11 4 6 8 4 3 6 5 2 1 1 2 5 3 2 3 4 3 4 4 2 5 3 4 4 4 5 6 6 5 5 2 2 3 3 7 6 2 1 7 7 3 5 6 2 2 3 4 3 4 5 3 4 4 1 6 6 3 4 6 4 4 6 4 6 7 9 12 11 12 16 18 23 30 34 38
16 15 17 22 25 23 21 22 21 19 21 17 7 6 11 7 4 5 5 4 4 4 4 2 3 3 4 3 3 3 2 2 2 3 3 3 3 5 4 5 8 9 8 5 3 2 2 6 4 2 1 3 3 1 2 2 3 2 2 3 4 4 5 2 4 2 4 3 6 3 6 8 5 7 6 4 3 6 6 7 6 11 15 19 25 30 34 39
17 17 22 27 26 20 21 23 20 20 21 14 7 9 8 5 7 7 4 5 4 6 7 2 3 6 5 3 4 5 3 1 2 3 3 3 3 6 5 5 8 14 13 7 3 4 3 5 4 2 2 2 1 1 2 2 4 5 3 5 3 2 4 3 1 3 3 3 6 4 9 12 6 6 4 2 2 9 8 5 4 8 13 20 25 29 34 39
17 17 26 31 26 20 21 22 19 19 17 9 10 11 4 5 10 9 7 6 4 5 6 6 6 6 7 5 4 5 5 4 4 3 3 3 4 5 6 5 8 13 14 9 2 2 3 3 4 1 1 2 3 1 1 2 3 5 3 2 2 3 1 2 2 2 1 3 7 5 8 14 9 6 7 4 7 10 9 5 5 7 14 20 24 27 32 36
15 15 23 27 22 20 22 22 19 18 13 7 11 11 4 5 8 13 16 10 4 5 5 7 7 3 5 6 4 4 6 6 6 4 4 4 4 5 7 6 6 7 9 9 5 2 3 2 4 1 2 2 2 1 4 2 2 3 0 2 1 3 3 3 3 3 3 3 7 5 8 14 9 6 8 8 10 10 8 7 8 11 17 24 26 29 33 38
16 11 14 17 15 17 22 22 19 16 10 9 12 7 2 3 8 19 25 16 5 5 5 4 5 5 4 6 4 4 6 6 6 5 4 5 4 5 7 7 5 4 2 5 3 1 3 2 4 2 3 1 2 4 7 8 5 3 2 2 2 1 2 1 2 2 4 4 5 3 8 15 6 5 7 8 8 10 10 10 10 13 21 26 28 32 36 40
18 10 10 12 13 19 26 21 14 12 7 8 9 5 2 4 7 15 24 22 13 8 5 5 7 7 5 5 4 4 5 5 6 6 4 5 5 5 9 13 10 8 4 4 2 4 3 3 4 1 1 4 5 4 4 7 7 6 6 6 7 5 3 1 4 3 3 4 5 3 8 17 7 4 5 6 7 8 10 11 10 15 24 27 29 34 38 41
21 10 7 11 16 26 30 16 9 10 8 9 9 6 6 7 5 8 16 20 14 8 5 5 7 7 5 5 5 6 6 5 6 7 5 7 10 7 10 18 19 17 10 3 2 4 3 3 3 4 5 6 5 3 1 2 3 3 5 5 5 6 6 5 7 5 2 4 4 3 7 17 6 4 4 5 5 7 10 13 12 16 25 28 31 35 36 39
24 15 8 11 20 31 26 8 7 8 7 11 11 9 10 7 3 6 10 13 11 6 6 6 6 9 7 5 6 7 7 6 7 8 5 6 11 10 12 21 21 15 8 2 1 3 3 2 3 5 4 2 3 4 3 3 1 3 6 5 6 8 8 7 6 3 2 5 4 3 10 17 4 3 2 2 2 5 10 16 17 17 22 27 30 34 36 38
25 21 15 13 22 32 22 6 7 9 8 11 10 11 14 10 9 9 8 11 11 7 8 9 6 8 8 5 7 8 7 7 7 8 9 7 7 10 17 26 23 13 8 7 7 9 5 2 3 4 5 4 3 3 3 3 1 5 5 5 9 11 8 3 1 1 4 9 8 5 14 17 5 3 2 3 3 5 7 16 20 18 20 26 30 33 36 37
18 16 19 22 30 35 25 12 7 7 11 13 11 12 13 10 15 20 16 15 16 9 6 7 7 9 7 4 6 8 8 10 9 6 9 8 3 5 15 26 26 17 11 12 15 16 8 3 5 6 7 8 7 5 4 3 3 3 3 7 12 14 12 6 2 5 10 10 10 10 17 19 11 2 1 5 6 6 8 12 17 19 21 25 29 33 36 38
14 9 10 18 31 38 34 25 13 4 7 12 9 10 14 12 14 21 21 17 18 13 6 5 6 8 6 5 7 10 11 13 11 5 5 6 3 3 7 17 22 17 9 10 18 16 4 2 8 11 12 13 14 12 6 6 4 5 7 11 14 15 16 10 5 9 9 4 7 18 21 21 24 16 8 11 11 8 9 10 13 19 23 25 29 34 37 39
12 8 9 11 17 25 27 26 19 7 3 8 7 7 16 18 11 12 17 16 17 16 9 7 7 7 8 11 11 11 13 13 13 12 9 5 3 2 1 6 13 13 7 7 16 12 3 4 13 16 17 18 19 17 7 7 7 10 10 12 13 13 14 13 14 17 9 3 10 25 23 19 28 26 17 17 16 10 8 10 15 22 25 28 31 32 34 36
16 13 18 20 13 9 15 22 22 12 6 9 8 5 12 17 14 12 12 10 13 17 13 9 13 17 18 15 11 9 11 11 13 16 12 7 4 1 0 1 5 10 7 5 9 7 3 9 16 14 17 20 20 20 12 7 10 11 12 15 13 13 15 19 23 23 13 9 19 27 24 23 27 27 22 19 15 11 13 18 22 25 26 27 28 29 32 36
24 15 17 26 19 10 17 27 25 16 13 14 10 8 14 19 19 14 8 4 7 16 17 14 18 24 21 14 10 9 12 13 15 16 12 10 9 5 3 4 3 7 8 5 5 4 4 10 15 11 12 17 20 19 12 11 13 12 19 24 14 14 19 22 23 22 19 21 26 27 27 29 28 26 25 23 19 17 18 20 22 23 24 26 28 30 34 39
31 21 14 19 18 14 16 20 18 14 15 15 11 14 18 19 19 12 7 9 10 10 15 22 24 20 15 14 14 16 21 22 18 14 11 10 10 7 7 7 3 4 6 5 2 3 5 8 8 6 8 15 18 14 9 11 13 13 24 29 17 15 20 20 19 20 19 22 27 27 25 26 27 26 23 23 23 19 16 15 19 23 26 28 30 33 37 40
42 33 21 14 10 11 12 10 11 10 9 11 14 18 17 18 21 14 7 16 21 13 13 22 26 16 9 14 20 24 30 27 19 18 16 15 15 12 9 8 9 7 7 7 4 4 6 4 1 3 6 14 12 6 5 5 4 11 26 33 24 18 19 19 19 19 18 20 24 23 18 20 24 23 18 15 14 13 13 14 18 23 28 31 32 34 39 41
48 37 33 24 12 11 12 7 9 11 10 13 19 21 17 17 19 13 8 16 27 27 22 20 20 14 8 14 26 36 41 37 30 28 21 16 18 17 11 10 14 12 8 7 4 4 7 6 3 4 7 12 5 4 4 4 3 11 22 25 23 19 18 20 21 21 22 20 17 16 17 20 22 18 15 13 11 10 13 17 20 23 28 32 35 38 41 42
Wind_Direction
6 8 11 14 18 19 18 13 11 11 14 14 11 11 13 16 18 20 23 27 31 32 31 40 57 71 78 79 74 66 62 63 66 64 66 66 62 54 47 42 36 30 24 21 19 11 359 349 344 344 331 319 10 11 27 25 47 105 107 78 121 161 174 176 179 191 162 182 187 187 194 155 156 173 147 130 127 130 136 143 145 161 162 161 162 159 168 174
1 2 4 7 11 15 17 14 11 7 6 8 7 4 3 6 10 12 14 17 22 28 29 29 42 68 91 94 88 82 80 75 74 63 64 64 57 48 42 40 32 26 21 19 21 19 16 3 351 340 335 12 18 10 23 7 42 88 108 85 205 197 194 198 181 180 159 175 182 185 195 183 181 171 157 147 129 131 122 122 136 144 148 157 163 164 174 177
355 358 359 1 4 8 12 13 12 7 3 2 2 1 358 358 1 4 6 9 12 18 25 25 25 44 87 154 130 110 95 72 73 56 57 55 43 36 35 36 29 23 19 15 11 11 13 6 359 343 341 42 23 360 7 2 16 88 96 84 236 211 195 230 182 178 182 182 178 173 184 198 188 170 166 164 159 162 158 154 155 158 160 163 167 171 177 178
347 352 355 356 358 1 4 7 10 8 4 1 360 360 357 354 354 357 359 2 4 6 15 21 18 22 44 189 199 208 269 299 157 58 50 47 33 24 32 36 27 22 19 15 8 7 9 5 360 350 352 38 18 7 1 4 357 332 118 149 215 179 164 205 185 185 192 186 190 171 160 188 183 175 173 158 150 238 211 188 186 188 178 172 173 175 179 183
340 345 349 351 353 356 358 360 3 5 4 1 359 358 357 354 351 353 356 358 359 358 3 11 13 7 9 306 224 238 295 344 190 110 56 50 32 17 34 40 27 25 20 14 7 10 13 5 2 12 39 24 16 31 15 6 6 349 195 186 166 151 159 197 179 183 191 189 201 170 152 179 178 185 187 171 171 225 216 205 201 201 190 179 176 177 181 186
332 337 343 346 348 350 353 354 356 358 358 358 357 355 355 353 350 349 351 355 356 354 354 1 4 360 350 330 253 239 320 356 201 162 102 79 37 16 43 45 29 27 19 10 6 17 20 12 13 27 43 24 21 36 360 357 3 346 308 14 153 165 178 186 179 186 193 193 200 185 170 171 166 200 202 191 204 228 228 210 195 192 189 182 179 180 183 187
324 330 335 340 344 345 348 350 351 352 353 353 351 349 348 348 347 344 345 350 352 351 349 351 355 351 334 307 269 253 283 266 204 180 164 136 59 7 48 44 29 25 14 7 10 22 21 16 20 33 39 32 25 14 346 342 354 111 297 2 146 210 206 183 186 195 198 198 203 196 176 172 175 199 200 202 219 241 229 196 187 184 182 181 182 183 185 186
316 323 328 334 339 341 342 344 347 348 348 348 346 343 341 340 340 337 337 341 345 347 346 344 346 343 330 300 279 281 277 246 201 190 191 182 209 289 39 22 24 20 9 8 12 22 22 18 20 25 29 46 2 349 354 345 356 102 285 325 110 243 223 196 203 202 202 205 207 201 192 198 202 194 193 209 222 229 200 185 183 180 179 184 187 185 186 185
311 317 322 328 332 336 338 340 342 344 345 346 345 341 337 335 333 331 328 331 336 338 340 339 337 337 327 292 280 290 271 235 220 215 205 207 223 231 342 347 8 6 6 7 5 15 22 21 16 6 354 147 346 335 7 9 341 19 282 310 313 284 277 213 212 203 202 208 197 192 220 231 202 194 216 216 214 207 191 184 181 180 182 185 188 189 188 188
307 312 318 323 327 332 333 336 338 340 343 344 344 342 338 334 330 327 322 323 327 328 333 333 331 332 320 284 261 275 276 242 233 228 213 218 228 231 274 316 343 347 360 2 355 6 16 15 10 5 360 111 1 334 357 49 294 315 307 305 294 285 293 239 219 216 207 211 202 186 238 239 174 178 242 208 195 189 181 177 180 183 186 186 188 190 189 191
305 310 315 318 322 325 328 332 333 335 338 341 343 343 340 336 330 325 318 318 320 321 325 326 326 324 308 275 229 234 287 255 232 227 219 223 231 246 268 296 317 322 349 355 349 359 8 4 4 9 16 318 337 325 335 351 312 319 325 311 299 311 307 248 224 221 202 210 219 183 22 245 166 214 240 199 184 183 180 177 181 186 188 187 188 189 188 188
300 306 310 314 317 320 323 326 327 331 334 337 340 341 342 337 330 324 316 314 314 313 318 320 322 317 298 265 242 254 282 256 233 228 222 225 232 249 267 285 301 312 337 346 343 10 7 353 357 5 336 281 323 350 347 334 325 326 7 330 307 348 342 268 239 214 194 205 208 156 332 254 205 232 236 198 184 181 182 182 183 187 188 188 188 187 186 185
294 300 304 308 312 314 317 320 323 325 328 332 335 339 340 335 330 324 312 310 307 307 312 314 316 311 285 261 259 263 261 246 238 229 222 227 235 249 261 278 295 302 320 336 331 22 10 350 351 359 336 272 296 344 314 325 337 329 40 33 321 353 343 284 342 192 187 196 173 134 279 253 225 232 226 190 185 179 181 186 187 189 189 190 190 188 186 184
290 294 298 303 306 309 312 316 318 321 325 328 331 336 338 333 330 320 308 303 299 302 304 306 313 305 269 260 271 262 248 244 238 229 225 230 238 248 255 274 292 292 303 329 303 303 4 357 356 4 35 35 268 248 321 344 15 344 5 43 8 352 290 288 337 155 159 205 178 138 260 259 252 246 222 191 190 184 184 190 191 192 193 194 193 190 189 187
287 290 294 298 301 305 308 311 314 317 321 324 326 332 335 330 327 317 305 295 293 296 292 299 306 288 262 264 269 261 249 241 232 229 229 231 239 248 257 268 276 279 288 311 249 248 356 358 11 26 25 346 347 15 350 352 11 21 358 319 341 352 276 303 299 176 171 212 175 150 253 267 271 266 223 195 192 191 191 194 195 196 196 196 196 193 193 190
284 286 290 293 297 301 305 308 312 314 317 321 323 328 332 328 323 316 300 290 290 285 281 297 294 260 255 268 263 258 249 238 232 231 230 232 242 252 262 266 268 270 274 302 243 250 348 6 70 41 20 17 66 75 35 5 346 5 51 259 282 298 299 319 312 210 210 158 176 189 246 272 278 296 211 193 193 195 197 199 199 200 200 198 199 198 195 192
281 283 286 290 294 298 302 306 309 312 314 318 320 323 330 326 319 312 297 289 283 273 276 285 273 251 256 258 257 256 250 238 231 232 232 236 245 253 258 257 261 259 254 275 240 258 345 27 114 29 38 53 77 80 33 349 312 323 15 287 252 249 267 300 311 307 227 168 217 226 241 260 266 312 181 193 196 198 202 207 206 204 203 202 202 201 200 197
277 279 283 286 290 295 299 303 306 308 311 315 319 323 329 325 316 308 294 280 263 266 278 259 225 251 260 242 237 247 249 234 227 229 232 237 243 245 247 251 255 247 244 254 217 189 350 37 103 40 21 14 32 83 85 254 217 238 271 290 286 263 228 244 269 314 24 223 236 223 245 261 270 277 215 201 200 203 209 213 212 209 206 205 204 203 204 202
271 275 279 283 286 290 293 298 302 305 307 312 318 322 327 325 318 307 262 205 253 274 268 226 198 202 257 234 230 241 247 232 226 229 233 238 239 235 237 245 243 228 222 228 214 57 33 44 57 13 328 294 255 138 181 210 183 199 224 222 261 272 260 247 241 265 328 280 257 236 242 264 274 274 242 209 205 209 217 220 217 213 209 208 207 206 206 206
266 270 274 278 281 285 290 294 297 302 307 312 322 329 336 337 334 321 211 232 279 270 259 245 225 236 258 261 252 249 248 238 232 232 233 233 228 226 229 234 231 219 222 209 231 18 65 52 293 238 229 228 225 188 170 173 166 186 206 221 243 244 272 275 254 276 283 236 264 243 237 260 268 273 263 219 210 213 221 225 222 215 213 211 210 209 208 208
263 264 268 272 275 280 284 288 294 300 306 313 326 338 343 338 333 315 284 280 278 264 261 260 246 246 255 261 259 255 249 242 237 231 228 224 214 212 219 218 201 207 260 199 195 27 68 51 253 226 215 208 205 175 141 130 160 200 214 242 266 225 255 279 285 308 305 187 264 251 236 259 259 271 271 218 198 217 220 221 222 217 216 216 213 212 210 209
261 260 262 266 269 274 277 283 289 294 301 308 320 330 325 320 312 304 308 292 277 272 265 259 253 252 253 254 256 253 241 236 236 223 215 212 206 207 211 183 153 206 295 71 123 7 25 263 248 226 185 143 120 127 135 156 175 188 189 218 275 239 263 292 307 332 350 165 268 278 262 264 260 267 270 230 200 226 226 222 224 219 216 216 215 214 210 207
259 258 259 261 264 268 271 278 283 288 295 298 306 312 309 313 311 311 313 287 283 281 264 255 253 252 250 249 249 239 223 220 227 215 206 203 202 205 202 166 141 180 356 149 165 100 320 253 241 185 141 133 103 67 119 121 215 189 180 195 262 263 280 283 298 331 328 250 268 289 279 265 261 261 269 253 224 233 236 230 229 225 221 220 218 216 212 208
257 256 257 258 260 264 267 272 277 282 285 287 293 293 299 306 308 319 316 281 282 280 258 250 243 241 238 232 228 218 213 215 216 206 200 199 195 200 202 166 124 147 228 185 156 176 243 250 162 116 116 144 165 330 146 191 277 242 202 204 242 258 233 233 287 331 324 310 311 321 300 259 240 245 262 276 235 240 243 235 232 230 228 226 223 220 216 211
257 255 254 254 257 259 262 269 272 275 277 277 281 278 290 300 306 325 327 301 289 277 251 237 230 231 217 200 197 192 199 216 214 201 196 197 193 183 181 163 150 207 213 165 142 219 262 255 140 123 91 125 160 233 210 186 248 297 230 211 226 243 247 262 326 348 350 332 352 12 326 270 220 239 259 290 277 253 243 230 232 230 226 226 224 222 217 213
257 254 251 250 254 256 256 262 265 266 268 266 268 272 285 293 309 328 343 29 301 263 199 199 209 203 194 193 180 164 176 236 211 199 191 195 197 182 160 160 161 219 189 150 155 246 264 349 108 129 133 132 164 243 237 172 146 306 249 199 203 210 241 304 5 8 330 275 293 66 322 274 269 223 253 263 266 264 248 229 236 231 224 222 224 223 217 212
257 254 250 247 251 251 246 247 251 251 253 256 258 261 278 287 308 338 4 15 280 226 155 175 185 179 190 193 174 160 191 202 178 190 189 190 196 187 193 200 136 221 182 136 291 260 161 98 59 100 122 136 178 243 230 158 136 245 232 136 122 115 144 169 84 25 240 275 289 169 168 273 278 236 247 258 264 272 265 248 242 229 224 224 224 222 217 213
259 257 251 245 246 247 240 239 242 240 238 243 249 254 271 280 288 351 52 316 267 157 137 173 166 179 192 186 184 180 134 147 150 190 189 183 189 183 211 218 181 196 178 141 238 262 152 166 191 154 130 178 205 227 192 158 159 242 206 120 99 99 129 143 100 266 285 5 292 221 148 260 277 245 266 315 257 266 265 254 248 228 224 226 223 220 218 214
261 259 251 242 242 243 239 236 236 233 232 236 244 251 259 246 269 50 98 241 261 110 136 176 163 185 179 166 196 211 185 157 157 183 180 179 190 181 203 212 171 161 167 148 221 259 167 187 197 156 158 213 218 233 179 166 193 213 139 94 58 64 71 70 76 48 35 351 269 240 153 218 274 227 175 36 237 251 259 255 252 235 228 226 221 219 217 212
262 259 249 239 237 238 236 233 231 229 226 226 230 236 235 184 121 94 210 238 260 117 117 161 178 179 156 141 216 236 206 223 157 149 165 178 191 176 135 153 110 115 356 346 268 268 337 69 168 167 190 192 150 91 132 153 158 120 92 50 18 27 45 44 51 68 47 274 262 236 173 188 277 241 175 186 214 224 243 258 259 242 229 222 219 219 215 210
264 257 245 235 230 230 230 228 226 222 217 217 223 213 179 141 99 155 218 237 284 239 119 169 214 138 149 150 201 212 180 230 176 154 163 169 169 134 117 130 73 74 358 335 298 307 343 52 242 236 194 138 103 78 46 49 92 99 73 47 9 338 13 17 357 47 50 255 265 239 174 187 242 243 204 232 247 223 224 251 255 235 218 213 216 218 213 208
262 256 248 234 226 225 223 222 219 215 211 210 212 196 155 151 224 194 218 317 307 215 165 183 216 158 165 157 198 196 171 207 185 167 167 157 175 191 179 187 175 68 315 268 277 329 309 232 255 329 194 163 121 78 19 355 40 91 89 75 45 336 353 343 309 48 227 247 257 127 142 215 242 245 240 248 259 250 230 234 245 240 217 212 215 216 211 205
251 252 251 235 225 221 218 217 213 206 205 199 192 167 118 201 230 195 199 237 227 214 149 128 131 140 145 147 233 208 163 207 189 170 167 142 185 234 242 219 175 196 259 213 316 328 295 294 296 94 249 189 163 148 199 263 132 148 146 127 127 106 334 277 270 268 267 269 250 133 132 262 271 258 235 232 241 249 248 244 247 249 233 224 221 215 209 203
246 249 256 243 230 219 213 212 205 200 198 189 173 130 129 226 233 196 208 223 237 360 49 91 88 106 138 179 238 198 174 230 177 148 167 135 169 238 239 231 186 144 128 143 210 198 244 297 223 182 210 180 180 185 166 143 140 177 159 136 150 152 181 233 240 245 283 302 272 161 148 246 269 257 219 230 247 253 260 258 254 252 242 235 225 213 205 202
256 242 249 252 238 218 209 206 199 194 191 180 161 139 204 216 209 195 215 218 234 341 20 46 90 113 229 261 278 225 204 239 150 131 177 174 186 210 197 205 195 148 121 162 248 166 206 266 249 240 133 162 182 194 135 117 113 201 130 115 174 183 173 203 232 215 288 318 283 205 209 229 247 261 215 219 268 256 266 271 256 240 230 220 213 206 202 200
263 230 236 252 243 221 208 203 196 192 188 173 157 215 218 210 175 188 195 173 181 155 117 27 89 139 251 274 276 248 204 221 139 145 210 208 212 212 203 216 193 174 166 169 207 178 199 271 276 2 10 162 170 199 148 146 176 165 138 178 215 182 138 146 273 326 71 293 274 262 269 276 311 289 221 163 250 255 271 279 237 217 210 204 206 204 200 199
257 230 236 246 242 228 212 202 194 194 189 175 194 223 212 202 191 186 173 149 156 138 134 189 201 181 216 236 226 214 179 202 176 168 213 233 231 196 199 245 197 186 191 177 204 215 188 269 261 136 203 236 81 16 355 23 130 129 180 214 199 125 98 109 264 339 43 255 271 291 281 281 295 290 276 102 235 252 253 248 222 211 204 205 209 205 201 200
254 237 241 243 238 230 214 202 194 195 187 179 229 235 207 202 198 181 172 158 132 119 143 205 215 183 194 208 222 196 171 190 181 171 200 225 245 184 160 216 200 194 202 182 193 245 149 261 278 109 228 287 20 42 331 354 88 128 182 213 128 137 153 101 152 243 204 241 271 290 293 279 257 247 273 241 205 234 241 213 203 213 209 212 211 204 201 199
251 241 249 250 238 221 206 197 193 193 187 194 231 235 208 207 210 199 195 183 146 147 174 216 214 187 183 183 192 187 182 192 173 173 202 197 232 199 166 195 192 193 202 171 174 231 124 216 275 343 301 307 24 141 190 220 43 88 103 345 35 164 173 163 169 194 174 221 270 302 312 286 253 200 239 230 198 215 223 197 203 215 214 214 208 201 200 198
232 235 252 246 228 211 197 191 191 189 195 218 223 224 182 201 223 216 211 205 187 189 202 211 200 209 207 184 189 187 187 200 179 184 217 197 217 230 202 192 152 147 178 133 152 194 104 195 247 327 334 268 193 203 193 188 171 163 210 227 223 163 125 217 221 163 165 218 256 286 287 277 259 157 210 218 198 210 208 196 208 219 219 216 209 203 202 200
217 238 251 219 209 203 188 183 193 195 208 236 229 226 212 214 226 222 221 219 220 221 209 183 192 206 194 184 207 186 178 203 189 193 230 209 215 240 208 190 156 138 126 83 155 196 154 186 199 183 246 215 220 235 204 193 182 181 197 198 197 181 141 233 254 215 178 220 219 171 267 270 262 143 197 195 188 210 202 194 206 218 219 216 211 209 205 202
206 229 240 200 197 193 181 178 209 205 212 231 227 225 218 220 224 218 221 222 226 238 227 206 209 207 191 187 195 179 179 201 194 200 230 218 214 220 197 184 166 151 149 139 195 185 132 130 183 220 224 218 243 278 262 220 218 211 213 193 182 176 162 193 233 225 174 235 225 126 265 267 256 133 189 190 197 220 200 194 206 219 220 215 212 212 208 204
205 214 210 194 192 186 179 191 230 204 226 233 230 239 230 227 229 204 209 214 217 222 224 224 206 204 217 203 181 188 193 202 201 196 214 233 223 219 190 177 168 153 145 150 174 141 109 122 213 261 295 338 330 335 1 22 42 248 240 185 177 203 198 198 214 183 151 227 205 136 255 263 275 88 232 240 267 252 205 202 212 218 218 216 212 211 208 205
209 216 214 202 191 186 185 212 218 206 228 227 227 238 232 234 233 214 199 199 203 198 212 226 207 205 224 196 189 207 193 202 223 203 208 231 224 211 192 179 174 170 180 193 174 163 172 172 180 246 296 315 331 343 327 328 252 232 237 190 202 219 203 166 107 134 242 235 196 196 253 258 270 50 344 320 290 273 227 215 220 219 215 214 212 210 208 204
202 213 213 201 191 192 202 220 211 211 222 218 226 233 230 243 236 225 218 210 209 199 200 229 213 202 210 177 199 218 196 211 235 216 212 228 226 208 195 188 187 188 201 202 170 160 176 187 170 203 238 245 250 237 213 222 212 225 232 203 212 214 198 189 186 215 243 232 189 213 251 261 267 257 10 289 261 254 253 236 229 227 222 217 213 211 208 202
187 197 202 189 190 199 216 227 224 226 219 213 226 230 225 239 241 228 223 221 221 214 217 249 211 188 194 180 200 223 218 222 232 228 217 211 218 245 196 196 202 201 207 193 165 155 152 206 198 211 219 226 244 243 190 137 162 203 214 208 211 212 203 197 210 227 232 203 201 233 246 263 271 264 254 264 254 235 243 241 229 226 223 220 217 214 209 203
187 206 195 171 186 204 220 227 225 229 202 189 195 215 220 227 240 231 218 215 215 210 223 253 211 190 207 197 198 222 223 223 229 232 227 196 200 294 206 205 216 213 209 180 170 160 105 229 219 223 226 231 247 249 208 150 204 224 222 215 210 208 198 192 215 226 213 134 243 248 248 258 267 267 263 262 260 246 229 225 226 226 223 221 219 213 206 201
202 220 205 190 184 194 211 216 213 210 209 203 205 226 229 226 227 222 211 206 202 196 207 236 219 216 217 200 196 224 224 227 234 231 228 213 196 219 296 255 222 209 198 172 186 172 130 234 232 225 232 241 249 251 236 214 238 246 249 241 214 194 194 200 218 226 212 217 247 256 260 260 263 269 267 262 262 257 242 236 234 233 227 220 213 205 200 199
210 224 209 198 199 199 207 210 204 198 211 216 217 238 239 233 228 217 189 168 206 203 203 220 226 223 220 204 197 219 221 223 229 225 219 217 207 187 219 257 225 195 184 169 208 186 155 237 240 225 238 249 247 250 249 246 256 263 261 256 226 191 206 210 221 230 225 232 247 257 264 266 266 268 268 268 270 266 257 246 234 227 220 211 206 201 199 201
212 218 198 192 209 218 213 209 199 198 213 211 218 236 236 238 237 223 176 181 209 208 201 221 234 226 210 206 211 226 229 224 228 227 205 198 210 203 211 223 175 156 195 187 199 208 196 234 242 208 240 256 249 245 241 240 250 259 262 261 242 213 225 225 227 234 232 239 248 253 261 266 266 265 268 274 274 264 253 238 222 218 214 207 203 201 201 203
219 223 214 200 216 216 207 202 188 198 215 202 217 232 232 237 237 228 211 212 217 215 196 215 233 231 200 206 217 229 235 230 233 235 212 195 207 210 211 203 163 152 197 190 165 193 200 226 248 143 230 256 253 236 221 231 263 263 261 260 247 229 232 234 232 230 226 235 246 251 253 257 262 267 271 272 263 244 236 228 218 217 214 207 203 202 204 205
220 226 224 221 223 198 193 199 186 200 216 203 214 227 226 234 234 224 233 229 222 225 221 215 227 229 206 212 220 228 235 235 238 243 238 226 225 229 233 211 183 174 176 172 177 188 182 202 215 165 225 258 260 114 118 82 31 263 255 252 243 230 228 238 243 238 228 228 237 245 244 246 255 266 272 267 249 225 228 226 218 217 215 210 209 209 208 207
Height
1563 1563 1562 1561 1560 1560 1559 1558 1557 1555 1554 1553 1552 1550 1549 1548 1547 1546 1545 1544 1543 1542 1540 1539 1538 1538 1538 1537 1537 1536 1536 1536 1535 1536 1535 1535 1534 1534 1533 1533 1532 1531 1530 1530 1529 1528 1527 1527 1526 1526 1525 1525 1524 1524 1524 1524 1523 1523 1526 1529 1531 1536 1535 1532 1535 1534 1532 1531 1533 1533 1533 1534 1536 1537 1537 1538 1539 1539 1540 1541 1541 1541 1540 1540 1540 1541 1542 1543
1563 1562 1562 1561 1560 1560 1559 1558 1557 1556 1555 1554 1553 1551 1550 1549 1548 1547 1546 1545 1544 1543 1541 1540 1539 1538 1538 1538 1537 1537 1537 1537 1536 1536 1535 1535 1535 1534 1534 1533 1532 1532 1531 1530 1529 1529 1528 1527 1526 1525 1525 1524 1525 1524 1524 1524 1523 1524 1529 1530 1530 1534 1531 1528 1530 1530 1530 1529 1530 1532 1532 1532 1533 1534 1535 1537 1540 1540 1540 1542 1542 1541 1540 1540 1540 1540 1541 1542
1562 1562 1561 1560 1560 1559 1559 1558 1557 1556 1555 1554 1553 1552 1550 1549 1548 1547 1546 1545 1544 1543 1542 1541 1540 1539 1538 1538 1537 1537 1537 1537 1536 1536 1535 1535 1535 1534 1534 1533 1533 1532 1531 1530 1529 1528 1527 1527 1526 1525 1524 1524 1525 1524 1524 1524 1524 1524 1527 1528 1529 1530 1529 1528 1528 1528 1528 1528 1529 1531 1532 1532 1532 1533 1533 1535 1539 1540 1538 1538 1539 1539 1538 1538 1538 1539 1540 1541
1562 1561 1560 1560 1559 1559 1558 1558 1557 1556 1555 1554 1553 1552 1551 1549 1548 1547 1546 1545 1544 1543 1542 1541 1540 1539 1539 1538 1538 1537 1537 1537 1536 1536 1536 1535 1535 1535 1534 1533 1533 1532 1531 1531 1530 1529 1528 1527 1526 1525 1524 1524 1525 1525 1525 1525 1525 1525 1525 1527 1527 1528 1528 1528 1528 1528 1528 1528 1528 1530 1532 1532 1531 1532 1532 1533 1537 1538 1535 1531 1531 1532 1533 1534 1536 1537 1538 1539
1561 1560 1560 1559 1559 1558 1558 1557 1556 1556 1555 1554 1553 1552 1551 1549 1548 1547 1546 1545 1544 1543 1542 1541 1541 1540 1539 1538 1538 1537 1537 1538 1536 1535 1536 1535 1535 1535 1534 1534 1533 1533 1532 1531 1530 1529 1528 1527 1525 1525 1524 1525 1525 1525 1526 1526 1526 1526 1526 1526 1526 1527 1528 1527 1528 1528 1528 1528 1528 1529 1530 1530 1530 1531 1530 1530 1530 1529 1528 1526 1527 1528 1529 1531 1533 1535 1536 1537
1560 1559 1559 1558 1558 1557 1557 1556 1556 1555 1554 1553 1553 1552 1550 1549 1548 1547 1546 1545 1544 1543 1542 1541 1540 1540 1539 1538 1538 1537 1537 1538 1536 1535 1536 1535 1535 1535 1534 1534 1534 1533 1532 1532 1531 1530 1529 1527 1525 1525 1525 1526 1527 1527 1527 1527 1527 1527 1527 1527 1527 1527 1527 1527 1528 1528 1528 1528 1528 1528 1528 1529 1530 1529 1529 1527 1525 1524 1525 1526 1527 1528 1530 1531 1532 1533 1534 1535
1559 1559 1558 1557 1557 1556 1556 1555 1554 1554 1553 1553 1552 1551 1550 1549 1548 1546 1545 1545 1544 1543 1541 1541 1540 1539 1539 1538 1538 1537 1537 1536 1535 1535 1535 1535 1535 1535 1534 1534 1534 1533 1533 1532 1531 1530 1529 1527 1526 1526 1527 1527 1529 1528 1528 1527 1527 1527 1528 1528 1528 1528 1527 1527 1528 1527 1528 1527 1527 1528 1528 1528 1528 1528 1528 1527 1524 1525 1525 1526 1527 1528 1529 1530 1531 1532 1533 1534
1558 1558 1557 1557 1556 1555 1555 1554 1553 1553 1552 1552 1551 1550 1549 1548 1547 1546 1545 1544 1543 1542 1541 1540 1540 1539 1538 1538 1538 1537 1537 1536 1536 1535 1535 1535 1535 1535 1534 1534 1534 1533 1533 1532 1531 1531 1529 1528 1527 1528 1528 1529 1529 1529 1528 1527 1527 1528 1528 1528 1528 1528 1528 1528 1528 1527 1527 1527 1527 1527 1527 1527 1527 1527 1526 1524 1524 1524 1524 1525 1526 1527 1528 1529 1530 1531 1532 1532
1558 1557 1556 1556 1555 1555 1554 1553 1553 1552 1551 1551 1550 1549 1548 1548 1547 1545 1544 1544 1543 1542 1541 1540 1539 1538 1538 1538 1537 1537 1536 1535 1535 1535 1535 1535 1534 1534 1534 1534 1534 1533 1533 1532 1531 1531 1530 1529 1529 1529 1529 1529 1529 1529 1529 1528 1528 1529 1528 1528 1528 1528 1528 1528 1527 1527 1527 1527 1527 1526 1526 1526 1526 1527 1524 1521 1522 1523 1523 1524 1524 1525 1526 1527 1528 1529 1530 1531
1557 1556 1556 1555 1554 1554 1553 1552 1552 1551 1550 1550 1549 1548 1548 1547 1546 1545 1543 1543 1542 1541 1540 1539 1539 1538 1538 1537 1538 1537 1535 1535 1535 1534 1535 1534 1534 1534 1534 1534 1533 1533 1533 1532 1531 1531 1530 1530 1530 1529 1529 1529 1529 1529 1529 1529 1529 1529 1528 1527 1527 1527 1527 1527 1526 1527 1527 1527 1526 1526 1526 1526 1526 1527 1521 1518 1520 1521 1522 1523 1524 1524 1525 1526 1527 1528 1529 1529
1557 1556 1555 1554 1554 1553 1552 1552 1551 1550 1549 1548 1548 1547 1546 1546 1545 1544 1542 1541 1541 1540 1540 1539 1538 1538 1537 1537 1537 1536 1534 1534 1534 1534 1534 1534 1534 1534 1533 1533 1533 1533 1533 1532 1531 1531 1530 1530 1530 1529 1529 1529 1529 1529 1529 1529 1528 1528 1528 1526 1526 1526 1525 1525 1525 1525 1525 1526 1525 1525 1526 1526 1527 1524 1516 1515 1518 1519 1520 1522 1523 1523 1524 1525 1526 1527 1528 1528
1556 1555 1554 1554 1553 1552 1551 1551 1550 1549 1548 1548 1547 1546 1545 1545 1544 1543 1541 1540 1539 1539 1538 1538 1537 1537 1536 1536 1535 1535 1534 1534 1534 1534 1534 1534 1534 1533 1533 1533 1533 1533 1532 1532 1531 1530 1531 1530 1530 1529 1529 1530 1530 1529 1528 1528 1528 1527 1527 1527 1525 1525 1524 1523 1523 1524 1524 1524 1524 1525 1526 1524 1523 1518 1512 1514 1517 1518 1520 1520 1521 1522 1523 1524 1524 1525 1526 1526
1554 1554 1553 1553 1552 1551 1550 1550 1549 1548 1547 1546 1546 1545 1544 1543 1542 1541 1540 1539 1538 1538 1537 1537 1536 1536 1535 1534 1533 1533 1533 1533 1533 1533 1533 1533 1533 1533 1533 1533 1532 1532 1532 1532 1531 1530 1530 1529 1529 1529 1529 1530 1530 1530 1529 1528 1527 1527 1529 1529 1528 1527 1524 1522 1523 1523 1523 1524 1523 1526 1526 1517 1514 1513 1511 1514 1515 1517 1520 1519 1520 1520 1521 1522 1522 1523 1523 1524
1553 1553 1552 1551 1551 1550 1549 1549 1548 1547 1546 1546 1545 1544 1543 1542 1541 1540 1538 1538 1537 1537 1536 1536 1535 1535 1534 1533 1532 1532 1532 1532 1533 1532 1533 1533 1533 1533 1533 1532 1532 1532 1531 1531 1531 1530 1530 1529 1529 1528 1529 1530 1530 1530 1529 1530 1528 1529 1530 1531 1535 1533 1525 1522 1524 1523 1523 1524 1522 1526 1527 1514 1508 1511 1512 1514 1514 1515 1516 1516 1518 1518 1519 1520 1520 1521 1521 1521
1552 1551 1551 1550 1549 1549 1548 1547 1547 1546 1545 1544 1543 1543 1542 1540 1539 1538 1537 1536 1536 1536 1535 1535 1534 1534 1533 1531 1530 1531 1530 1531 1531 1531 1532 1532 1532 1532 1532 1532 1532 1531 1531 1530 1530 1530 1529 1529 1528 1528 1529 1529 1529 1530 1531 1531 1531 1533 1531 1532 1539 1537 1528 1523 1523 1522 1522 1523 1523 1526 1526 1514 1508 1509 1510 1512 1513 1513 1513 1514 1515 1515 1516 1517 1517 1518 1519 1519
1551 1550 1549 1549 1548 1548 1547 1546 1546 1545 1544 1543 1542 1542 1540 1539 1538 1536 1535 1534 1534 1534 1534 1534 1533 1533 1532 1530 1529 1529 1529 1530 1530 1530 1531 1531 1531 1531 1531 1531 1531 1530 1530 1530 1530 1529 1529 1528 1528 1529 1529 1529 1531 1531 1531 1532 1533 1536 1536 1533 1536 1537 1534 1527 1522 1522 1522 1522 1523 1524 1521 1513 1507 1508 1509 1511 1512 1512 1512 1512 1513 1513 1513 1514 1514 1515 1516 1517
1550 1549 1548 1548 1547 1547 1546 1545 1544 1543 1543 1542 1541 1540 1539 1538 1536 1535 1534 1533 1533 1533 1533 1533 1532 1533 1531 1528 1528 1527 1527 1528 1528 1529 1529 1530 1530 1530 1530 1530 1530 1530 1529 1529 1529 1528 1528 1528 1528 1529 1529 1531 1533 1532 1533 1535 1533 1535 1538 1536 1536 1536 1537 1532 1524 1522 1523 1522 1522 1522 1521 1512 1505 1507 1509 1510 1511 1511 1511 1510 1510 1510 1510 1511 1512 1512 1513 1514
1548 1547 1547 1547 1546 1546 1545 1544 1543 1542 1541 1541 1539 1538 1537 1536 1535 1534 1532 1532 1532 1532 1532 1531 1532 1533 1529 1525 1526 1525 1525 1527 1527 1528 1528 1529 1529 1529 1529 1529 1529 1529 1528 1528 1528 1528 1527 1527 1528 1529 1530 1531 1532 1532 1535 1536 1534 1534 1537 1536 1537 1537 1536 1533 1528 1524 1523 1523 1522 1522 1521 1513 1505 1505 1508 1509 1510 1509 1507 1506 1506 1507 1508 1508 1509 1509 1509 1510
1546 1546 1546 1545 1545 1545 1544 1543 1542 1541 1540 1539 1539 1537 1535 1535 1533 1532 1531 1531 1531 1531 1530 1529 1529 1529 1526 1523 1524 1524 1524 1525 1526 1526 1527 1528 1528 1528 1528 1528 1528 1528 1528 1527 1527 1527 1527 1527 1529 1530 1530 1530 1530 1531 1532 1533 1533 1534 1536 1537 1537 1536 1532 1529 1527 1525 1524 1523 1520 1520 1519 1512 1505 1502 1503 1506 1507 1506 1504 1504 1505 1505 1506 1506 1505 1506 1506 1506
1543 1544 1544 1543 1543 1543 1543 1542 1541 1540 1539 1538 1538 1536 1535 1534 1533 1531 1531 1530 1529 1528 1527 1527 1525 1524 1522 1522 1523 1523 1523 1524 1524 1525 1526 1526 1527 1527 1528 1528 1527 1527 1527 1527 1526 1526 1527 1529 1529 1529 1528 1527 1529 1530 1530 1532 1534 1534 1536 1537 1537 1538 1532 1523 1524 1525 1525 1524 1518 1515 1517 1513 1506 1499 1498 1502 1504 1504 1503 1501 1501 1502 1502 1501 1501 1501 1502 1503
1541 1541 1541 1541 1541 1541 1541 1541 1540 1540 1539 1538 1537 1536 1535 1535 1534 1533 1531 1528 1527 1526 1524 1524 1523 1522 1521 1521 1521 1521 1522 1522 1522 1523 1524 1525 1526 1526 1526 1527 1527 1527 1527 1527 1527 1527 1529 1529 1527 1526 1526 1526 1528 1531 1532 1533 1534 1534 1535 1536 1536 1539 1532 1522 1524 1525 1524 1525 1516 1513 1516 1512 1506 1499 1493 1498 1501 1498 1496 1495 1495 1496 1497 1497 1497 1497 1499 1501
1539 1539 1539 1539 1539 1539 1539 1539 1539 1539 1538 1538 1537 1537 1536 1536 1535 1534 1532 1528 1524 1523 1522 1521 1520 1519 1519 1519 1519 1520 1521 1521 1521 1521 1522 1523 1524 1524 1525 1525 1526 1526 1527 1528 1527 1529 1531 1526 1522 1524 1526 1528 1529 1531 1532 1532 1534 1535 1536 1537 1535 1535 1531 1524 1524 1525 1524 1524 1515 1512 1515 1509 1505 1498 1489 1491 1494 1489 1486 1486 1487 1489 1491 1491 1492 1493 1495 1498
1535 1535 1537 1537 1537 1538 1538 1538 1538 1537 1538 1537 1537 1537 1536 1535 1534 1534 1533 1529 1522 1519 1518 1517 1517 1516 1516 1517 1517 1518 1518 1518 1519 1519 1520 1522 1522 1523 1524 1524 1526 1526 1527 1527 1526 1529 1527 1522 1521 1524 1526 1526 1528 1530 1531 1532 1533 1534 1535 1536 1531 1530 1531 1525 1523 1525 1524 1522 1517 1513 1512 1506 1501 1494 1484 1483 1486 1483 1481 1482 1483 1485 1485 1485 1487 1489 1490 1492
1532 1533 1534 1534 1535 1535 1536 1536 1536 1536 1536 1536 1536 1536 1535 1535 1534 1533 1532 1529 1522 1517 1515 1514 1514 1514 1514 1515 1515 1516 1516 1516 1517 1517 1518 1520 1521 1522 1522 1523 1526 1526 1526 1525 1526 1526 1523 1521 1524 1525 1525 1526 1527 1529 1530 1530 1530 1531 1531 1531 1527 1526 1528 1526 1526 1527 1523 1521 1520 1514 1503 1494 1494 1490 1481 1481 1483 1481 1480 1481 1482 1482 1482 1484 1486 1486 1486 1487
1529 1530 1531 1532 1533 1533 1534 1535 1534 1535 1535 1535 1535 1535 1535 1534 1533 1533 1531 1529 1523 1515 1513 1513 1513 1512 1512 1513 1513 1514 1515 1515 1515 1516 1517 1518 1520 1521 1521 1522 1524 1523 1525 1527 1527 1525 1521 1522 1524 1525 1526 1527 1527 1528 1529 1529 1530 1529 1526 1525 1524 1523 1525 1528 1529 1528 1523 1520 1521 1521 1507 1489 1485 1488 1482 1480 1482 1479 1478 1479 1477 1477 1479 1482 1482 1481 1483 1485
1525 1526 1528 1529 1530 1531 1533 1533 1533 1534 1533 1535 1534 1534 1535 1533 1533 1533 1531 1533 1527 1513 1510 1511 1511 1511 1511 1512 1513 1514 1515 1514 1513 1514 1516 1517 1518 1519 1520 1522 1522 1522 1524 1527 1526 1523 1522 1524 1524 1524 1526 1527 1529 1529 1528 1529 1531 1530 1524 1523 1525 1524 1527 1529 1529 1527 1524 1522 1522 1527 1525 1502 1484 1483 1480 1477 1479 1475 1475 1476 1473 1473 1475 1475 1475 1475 1478 1481
1522 1523 1525 1527 1527 1529 1531 1530 1531 1532 1532 1534 1533 1533 1534 1532 1535 1533 1531 1538 1528 1508 1507 1510 1509 1510 1509 1511 1512 1512 1513 1511 1511 1514 1514 1516 1517 1517 1519 1520 1521 1522 1523 1526 1524 1520 1521 1523 1524 1525 1525 1528 1528 1526 1525 1528 1530 1527 1524 1526 1526 1525 1527 1528 1530 1530 1528 1528 1525 1524 1530 1517 1491 1480 1477 1475 1477 1474 1471 1471 1468 1469 1470 1468 1469 1472 1474 1477
1519 1521 1523 1524 1525 1526 1528 1529 1529 1530 1532 1533 1532 1533 1533 1532 1535 1531 1535 1543 1523 1502 1504 1508 1507 1509 1508 1510 1511 1510 1511 1509 1511 1513 1513 1515 1516 1516 1517 1518 1519 1519 1520 1523 1521 1517 1518 1520 1521 1522 1525 1526 1523 1520 1522 1524 1524 1523 1526 1528 1526 1526 1528 1529 1530 1531 1532 1533 1523 1516 1527 1522 1492 1476 1479 1479 1478 1473 1466 1464 1462 1463 1464 1463 1465 1468 1470 1474
1517 1518 1520 1522 1523 1524 1526 1527 1528 1529 1530 1531 1531 1532 1532 1534 1534 1531 1541 1541 1513 1499 1505 1506 1506 1508 1508 1510 1510 1510 1510 1510 1510 1511 1512 1514 1514 1515 1516 1517 1518 1518 1519 1521 1517 1515 1517 1518 1518 1520 1521 1520 1518 1520 1522 1522 1521 1523 1527 1527 1527 1529 1530 1531 1531 1530 1535 1533 1516 1510 1521 1517 1485 1465 1474 1481 1476 1468 1461 1458 1457 1457 1458 1459 1462 1465 1467 1470
1515 1516 1518 1519 1520 1522 1524 1525 1526 1527 1529 1530 1531 1531 1532 1533 1533 1538 1547 1534 1508 1502 1506 1504 1506 1508 1507 1510 1510 1510 1511 1510 1510 1511 1513 1514 1514 1515 1516 1516 1518 1519 1521 1521 1518 1517 1518 1519 1520 1519 1517 1516 1518 1522 1524 1524 1523 1524 1527 1525 1525 1528 1531 1535 1536 1533 1533 1520 1503 1503 1511 1513 1492 1465 1465 1468 1460 1456 1454 1453 1454 1454 1455 1457 1459 1461 1463 1466
1512 1514 1515 1516 1518 1520 1521 1523 1524 1526 1528 1528 1529 1531 1532 1533 1536 1542 1538 1519 1505 1505 1504 1504 1508 1507 1507 1509 1508 1509 1511 1510 1511 1511 1512 1513 1514 1515 1516 1516 1518 1521 1523 1521 1518 1519 1519 1519 1518 1515 1514 1515 1518 1521 1524 1525 1526 1525 1526 1524 1523 1525 1528 1531 1534 1535 1529 1506 1496 1503 1509 1513 1498 1467 1458 1458 1451 1451 1452 1449 1449 1450 1452 1453 1454 1456 1459 1462
1511 1512 1512 1514 1515 1517 1519 1521 1522 1524 1526 1527 1529 1530 1531 1536 1538 1533 1522 1509 1504 1503 1500 1503 1507 1506 1508 1509 1507 1509 1510 1509 1509 1510 1511 1513 1514 1513 1512 1512 1513 1516 1519 1519 1517 1517 1515 1513 1514 1513 1513 1515 1515 1520 1525 1526 1526 1525 1526 1527 1527 1530 1531 1527 1524 1526 1520 1502 1500 1509 1511 1505 1483 1458 1455 1456 1450 1450 1450 1448 1447 1447 1449 1450 1451 1453 1455 1459
1509 1509 1510 1511 1512 1515 1517 1518 1520 1523 1524 1526 1529 1529 1533 1539 1530 1518 1513 1506 1499 1498 1498 1501 1504 1505 1507 1507 1506 1508 1508 1507 1507 1508 1510 1513 1513 1511 1510 1510 1511 1509 1511 1519 1520 1514 1509 1508 1512 1513 1510 1511 1511 1514 1518 1519 1523 1525 1523 1523 1525 1532 1536 1527 1520 1518 1509 1499 1503 1513 1510 1491 1464 1448 1448 1447 1445 1446 1445 1446 1445 1445 1447 1447 1448 1451 1452 1455
1507 1508 1509 1509 1510 1513 1514 1516 1519 1520 1522 1525 1526 1529 1536 1535 1519 1509 1508 1501 1497 1500 1501 1502 1504 1506 1506 1505 1504 1505 1505 1505 1506 1508 1509 1512 1514 1510 1506 1509 1511 1507 1509 1519 1520 1516 1512 1505 1504 1507 1505 1506 1507 1506 1508 1511 1519 1523 1521 1520 1519 1522 1525 1520 1513 1510 1503 1496 1500 1509 1503 1477 1451 1441 1441 1441 1442 1444 1443 1443 1443 1443 1445 1446 1446 1448 1449 1451
1505 1506 1507 1507 1508 1510 1511 1515 1516 1518 1521 1521 1524 1530 1528 1518 1509 1507 1503 1498 1499 1500 1501 1503 1505 1506 1506 1505 1505 1503 1501 1501 1505 1508 1508 1509 1509 1505 1501 1501 1506 1507 1509 1514 1515 1518 1519 1506 1500 1505 1503 1504 1506 1505 1507 1508 1514 1522 1524 1522 1517 1513 1513 1514 1513 1512 1515 1511 1501 1498 1486 1463 1446 1439 1439 1444 1442 1442 1443 1441 1442 1442 1442 1445 1445 1444 1446 1448
1503 1503 1505 1504 1504 1507 1510 1512 1514 1517 1518 1518 1524 1522 1508 1497 1499 1499 1494 1492 1495 1496 1500 1505 1504 1505 1506 1503 1502 1502 1500 1500 1505 1507 1506 1507 1505 1502 1499 1495 1497 1501 1500 1504 1508 1510 1511 1503 1502 1507 1504 1506 1507 1505 1508 1505 1505 1519 1522 1515 1514 1514 1511 1512 1516 1519 1526 1521 1496 1482 1472 1456 1448 1437 1432 1442 1441 1439 1443 1440 1440 1442 1441 1442 1442 1441 1443 1445
1500 1501 1502 1500 1501 1506 1508 1509 1513 1515 1515 1518 1517 1504 1491 1488 1489 1489 1488 1488 1490 1492 1496 1500 1498 1499 1500 1498 1496 1498 1499 1501 1504 1503 1503 1504 1498 1493 1495 1492 1491 1492 1489 1493 1497 1498 1500 1497 1500 1506 1502 1505 1508 1505 1508 1507 1505 1513 1514 1509 1512 1516 1514 1515 1521 1521 1527 1523 1496 1480 1473 1458 1451 1441 1430 1439 1442 1435 1438 1439 1440 1442 1441 1440 1439 1438 1441 1442
1498 1499 1497 1495 1499 1504 1505 1508 1511 1511 1515 1516 1506 1491 1485 1485 1482 1482 1484 1485 1486 1489 1492 1493 1490 1490 1492 1492 1492 1495 1498 1498 1501 1502 1500 1499 1490 1483 1487 1486 1485 1488 1486 1488 1491 1495 1500 1496 1498 1509 1507 1505 1509 1506 1506 1508 1508 1508 1508 1509 1511 1511 1513 1519 1523 1518 1520 1522 1499 1481 1474 1452 1439 1436 1427 1430 1435 1430 1432 1438 1440 1440 1438 1437 1436 1437 1440 1441
1498 1498 1492 1489 1495 1500 1502 1506 1508 1511 1514 1509 1498 1489 1484 1480 1478 1479 1479 1480 1482 1485 1486 1485 1483 1485 1488 1488 1488 1491 1494 1493 1497 1499 1493 1492 1487 1479 1480 1479 1481 1486 1486 1488 1490 1493 1499 1496 1496 1508 1512 1508 1508 1506 1503 1503 1509 1511 1509 1512 1511 1509 1512 1513 1517 1513 1509 1513 1498 1485 1478 1443 1417 1423 1421 1419 1426 1425 1428 1435 1436 1435 1433 1432 1433 1434 1436 1438
1496 1496 1489 1485 1491 1496 1499 1504 1506 1508 1506 1494 1486 1483 1480 1477 1477 1476 1475 1477 1479 1479 1480 1480 1480 1482 1483 1486 1486 1486 1489 1489 1492 1493 1487 1485 1482 1477 1476 1475 1477 1485 1487 1489 1491 1492 1499 1498 1495 1505 1514 1509 1501 1498 1494 1493 1501 1507 1508 1511 1510 1511 1514 1512 1513 1509 1503 1507 1501 1496 1488 1440 1406 1416 1416 1414 1421 1420 1423 1428 1430 1430 1428 1428 1431 1431 1432 1434
1495 1493 1485 1484 1489 1491 1496 1502 1500 1498 1494 1484 1478 1478 1478 1476 1475 1474 1474 1476 1476 1474 1475 1476 1477 1477 1477 1481 1483 1481 1484 1486 1487 1487 1483 1480 1476 1472 1470 1470 1473 1481 1487 1490 1491 1489 1494 1497 1495 1501 1507 1500 1490 1489 1491 1489 1491 1494 1495 1498 1498 1502 1509 1509 1509 1503 1501 1502 1493 1496 1488 1435 1403 1416 1415 1412 1419 1417 1419 1423 1423 1425 1424 1425 1427 1427 1429 1430
1491 1488 1482 1483 1486 1486 1491 1493 1488 1487 1485 1477 1473 1474 1474 1473 1471 1472 1473 1474 1475 1473 1474 1473 1472 1473 1472 1473 1475 1476 1479 1480 1482 1483 1478 1473 1470 1465 1464 1466 1469 1473 1478 1484 1486 1484 1488 1493 1493 1492 1492 1491 1490 1491 1494 1492 1490 1491 1490 1489 1491 1495 1497 1497 1497 1494 1498 1496 1485 1497 1488 1426 1399 1417 1415 1412 1418 1415 1417 1420 1419 1421 1420 1421 1424 1424 1426 1428
1482 1481 1480 1482 1483 1485 1489 1488 1482 1481 1477 1470 1470 1471 1471 1470 1470 1470 1470 1471 1472 1471 1471 1469 1466 1467 1468 1467 1470 1472 1472 1472 1473 1474 1471 1468 1464 1460 1462 1465 1467 1470 1474 1478 1481 1483 1486 1489 1490 1486 1483 1487 1492 1493 1493 1493 1493 1491 1487 1487 1488 1485 1482 1483 1486 1487 1491 1487 1484 1499 1479 1416 1399 1418 1416 1414 1418 1414 1416 1417 1415 1417 1417 1418 1421 1421 1423 1425
1476 1478 1479 1480 1482 1484 1483 1477 1473 1473 1470 1468 1470 1469 1468 1468 1465 1465 1466 1465 1465 1465 1464 1462 1461 1462 1464 1464 1465 1466 1468 1468 1466 1464 1464 1462 1458 1458 1459 1461 1463 1466 1467 1467 1470 1476 1481 1483 1486 1488 1487 1486 1488 1490 1492 1493 1493 1486 1480 1482 1482 1477 1479 1484 1486 1490 1486 1474 1478 1489 1458 1408 1403 1418 1415 1415 1417 1413 1414 1414 1412 1414 1414 1415 1417 1418 1420 1422
1472 1475 1474 1475 1478 1477 1472 1465 1464 1466 1466 1467 1468 1465 1466 1465 1458 1458 1460 1458 1458 1458 1458 1457 1458 1459 1460 1463 1463 1463 1464 1462 1459 1458 1458 1456 1456 1456 1456 1458 1459 1459 1459 1459 1461 1466 1472 1475 1477 1482 1486 1483 1473 1469 1474 1480 1485 1483 1477 1477 1476 1475 1479 1479 1481 1488 1477 1464 1471 1469 1436 1405 1403 1412 1413 1413 1413 1412 1412 1412 1412 1412 1412 1412 1414 1415 1417 1419
1467 1467 1466 1469 1471 1470 1464 1461 1463 1464 1462 1465 1467 1465 1464 1459 1452 1451 1454 1454 1454 1455 1456 1455 1455 1457 1459 1461 1461 1460 1459 1457 1456 1455 1453 1453 1453 1453 1455 1456 1456 1456 1457 1459 1460 1462 1467 1469 1466 1464 1466 1464 1452 1447 1455 1463 1468 1470 1468 1469 1470 1471 1472 1473 1477 1475 1462 1462 1464 1443 1421 1414 1404 1402 1410 1410 1407 1409 1409 1408 1409 1408 1408 1410 1410 1411 1413 1415
1459 1455 1454 1459 1463 1464 1461 1459 1461 1460 1460 1462 1462 1456 1453 1451 1450 1450 1449 1449 1450 1454 1456 1453 1452 1454 1453 1454 1456 1455 1453 1454 1454 1451 1448 1449 1450 1453 1456 1455 1455 1457 1457 1459 1460 1460 1463 1463 1458 1456 1453 1448 1441 1441 1451 1456 1454 1454 1456 1460 1464 1466 1469 1473 1468 1454 1450 1462 1450 1418 1415 1422 1402 1391 1402 1403 1400 1404 1405 1404 1404 1403 1404 1404 1405 1407 1410 1412
1448 1443 1442 1446 1448 1450 1450 1448 1450 1456 1459 1458 1453 1448 1446 1446 1447 1446 1444 1445 1448 1450 1452 1449 1446 1444 1441 1444 1450 1450 1450 1453 1451 1446 1444 1446 1448 1452 1454 1454 1456 1456 1456 1460 1459 1457 1460 1455 1447 1451 1452 1447 1442 1442 1447 1451 1449 1448 1448 1448 1454 1463 1466 1463 1452 1441 1445 1450 1429 1405 1412 1416 1394 1385 1393 1393 1395 1398 1397 1397 1398 1397 1399 1400 1401 1404 1406 1408
1439 1437 1438 1440 1437 1436 1436 1437 1443 1451 1453 1452 1451 1447 1441 1437 1436 1436 1440 1445 1446 1443 1443 1441 1434 1431 1436 1442 1446 1447 1446 1443 1438 1435 1438 1441 1444 1448 1450 1450 1454 1455 1456 1458 1458 1457 1458 1448 1441 1448 1450 1446 1443 1442 1447 1451 1450 1449 1444 1436 1443 1454 1454 1449 1443 1438 1440 1435 1418 1409 1414 1405 1386 1380 1383 1384 1390 1394 1391 1392 1393 1393 1394 1396 1397 1399 1400 1402
1429 1428 1431 1434 1433 1432 1434 1436 1442 1445 1444 1448 1449 1441 1433 1431 1430 1432 1435 1438 1437 1435 1436 1433 1425 1426 1435 1441 1443 1439 1429 1422 1422 1426 1431 1437 1440 1443 1443 1440 1444 1453 1456 1455 1456 1458 1454 1445 1441 1447 1448 1442 1438 1441 1448 1450 1449 1450 1439 1425 1432 1443 1441 1439 1438 1435 1435 1431 1418 1415 1419 1403 1377 1372 1379 1382 1385 1389 1388 1387 1388 1388 1389 1391 1392 1393 1395 1396
1423 1424 1427 1431 1429 1428 1430 1432 1436 1439 1439 1442 1439 1429 1427 1427 1424 1427 1431 1428 1425 1426 1428 1426 1423 1427 1435 1438 1436 1426 1414 1414 1420 1422 1424 1428 1429 1430 1431 1429 1432 1444 1451 1451 1451 1452 1453 1448 1444 1448 1451 1439 1433 1441 1448 1448 1453 1454 1433 1415 1422 1431 1428 1425 1423 1421 1423 1423 1417 1419 1420 1398 1371 1368 1377 1379 1381 1383 1382 1382 1383 1383 1384 1385 1386 1388 1389 1390
1420 1422 1423 1425 1422 1421 1425 1427 1430 1432 1427 1425 1423 1419 1420 1421 1419 1427 1431 1423 1418 1419 1422 1422 1423 1428 1433 1430 1420 1410 1407 1413 1419 1419 1422 1424 1423 1423 1425 1425 1426 1431 1440 1447 1446 1445 1447 1445 1442 1448 1450 1439 1438 1448 1449 1453 1460 1445 1412 1397 1406 1417 1418 1414 1409 1406 1407 1410 1412 1409 1397 1379 1368 1371 1376 1375 1376 1378 1376 1375 1378 1379 1379 1381 1381 1381 1383 1385